Flag Weather past 2 weeks in Famagusta, Cyprus

Now
64 °F

Passing clouds.


Feels Like: 64 °F
Forecast: 51 / 67 °F
Wind: 2 mph from Northwest

Location: Larnaca Airport

Current Time: Nov 29, 2014 at 10:00:49 AM

Latest Report: Nov 29, 2014 at 9:30 AM


Visibility: N/A

Pressure: 30.24 "Hg

Humidity: 60%

Dew point: 50 °F

Location of FamagustaLocation

Historic Weather in Famagusta — Graph

°F

Famagusta temperature yesterday

Maximum temperature yesterday: 68 °F (at 10:30 AM)
Minimum temperature yesterday: 48 °F (at 3:00 AM)
Average temperature yesterday: 58 °F

Past Weeks' High & Low Weather Summary

 TemperatureHumidityPressure
High75 °F (Nov 14, 11:30 AM)94% (Nov 16, 3:30 AM)30.24 "Hg (Nov 16, 3:30 AM)
Low46 °F (Nov 27, 1:30 AM)32% (Nov 22, 3:00 PM)29.71 "Hg (Nov 25, 9:00 PM)
Average61 °F66%29.98 "Hg
* Reported Nov 14 9:00 AM — Nov 29 9:00 AM, Famagusta, Weather by CustomWeather, © 2014

Note: Actual official high and low records may vary slightly from our data, if they occured in-between our weather recording intervals... More about our weather records

Advertising

Famagusta weather history for previous 24 hours

 ConditionsComfort  
Time TempWeatherWind HumidityBarometerVisibility
9:00 AM
Nov 29
61 °FPassing clouds.2 mph68%30.24 "HgN/A
8:30 AM59 °FPassing clouds.2 mph72%30.24 "HgN/A
8:00 AM57 °FPassing clouds.5 mph77%30.24 "HgN/A
7:30 AM55 °FPassing clouds.6 mph77%30.24 "HgN/A
7:00 AM54 °FPassing clouds.7 mph77%30.24 "HgN/A
6:30 AM52 °FPassing clouds.5 mph82%30.24 "HgN/A
6:00 AM52 °FPassing clouds.7 mph82%30.21 "HgN/A
5:30 AM54 °FPassing clouds.7 mph77%30.21 "HgN/A
5:00 AM52 °FPassing clouds.3 mph82%30.21 "HgN/A
4:30 AM52 °FPassing clouds.3 mph82%30.21 "HgN/A
4:00 AM54 °FPassing clouds.6 mph82%30.24 "HgN/A
3:30 AM54 °FPassing clouds.8 mph82%30.21 "HgN/A
3:00 AM52 °FPassing clouds.6 mph88%30.24 "HgN/A
2:30 AM52 °FPassing clouds.7 mph82%30.24 "HgN/A
2:00 AM52 °FPassing clouds.7 mph88%30.24 "HgN/A
1:30 AM52 °FClear.5 mph82%30.24 "Hg10 mi
1:00 AM52 °FClear.5 mph82%30.24 "Hg10 mi
12:30 AM52 °FClear.6 mph88%30.24 "Hg10 mi
12:00 AM52 °FClear.5 mph88%30.24 "Hg10 mi
11:30 PM
Nov 28
52 °FClear.3 mph88%30.24 "Hg10 mi
11:00 PM54 °FClear.5 mph82%30.24 "Hg10 mi
10:30 PM54 °FPassing clouds.3 mph82%30.24 "HgN/A
10:00 PM55 °FClear.6 mph77%30.24 "Hg10 mi
9:30 PM55 °FPassing clouds.7 mph77%30.24 "HgN/A
9:00 PM55 °FPassing clouds.6 mph77%30.24 "HgN/A
8:30 PM55 °FPassing clouds.7 mph77%30.24 "HgN/A
8:00 PM55 °FPassing clouds.5 mph77%30.24 "HgN/A
7:30 PM57 °FPassing clouds.5 mph72%30.21 "HgN/A
7:00 PM57 °FPassing clouds.5 mph72%30.21 "HgN/A
6:30 PM61 °FPassing clouds.5 mph59%30.21 "HgN/A
6:00 PM61 °FPassing clouds.6 mph59%30.21 "HgN/A
5:30 PM64 °FPassing clouds.7 mph56%30.21 "HgN/A
5:00 PM64 °FPassing clouds.6 mph52%30.21 "HgN/A
4:30 PM64 °FScattered clouds.6 mph46%30.21 "HgN/A
4:00 PM66 °FScattered clouds.6 mph43%30.18 "HgN/A
3:30 PM68 °FScattered clouds.7 mph40%30.18 "HgN/A
3:00 PM68 °FPassing clouds.8 mph38%30.18 "HgN/A
2:30 PM68 °FScattered clouds.9 mph40%30.18 "HgN/A
2:00 PM66 °FScattered clouds.8 mph43%30.18 "HgN/A
1:30 PM66 °FPartly sunny.8 mph46%30.18 "HgN/A
1:00 PM66 °FScattered clouds.7 mph46%30.18 "HgN/A
12:30 PM68 °FScattered clouds.9 mph43%30.18 "HgN/A
12:00 PM66 °FPassing clouds.9 mph49%30.18 "HgN/A
11:30 AM66 °FPassing clouds.9 mph46%30.21 "HgN/A
11:00 AM68 °FPassing clouds.7 mph43%30.21 "HgN/A
10:30 AM68 °FPassing clouds.3 mph43%30.21 "HgN/A
10:00 AM64 °FPassing clouds.1 mph49%30.21 "HgN/A
Weather by CustomWeather, © 2014

See weather overviewHow to use our weather pages